Flag for Canada Weather past 2 weeks in Gander, Newfoundland and Labrador, Canada

Now
30 °F

Light snow. Ice fog.


Feels Like: 22 °F
Forecast: 28 / 35 °F
Wind: 9 mph from North

Location: Gander Int. Airport

Current Time: Apr 18, 2015 at 1:58:20 PM

Latest Report: Apr 18, 2015 at 12:30 PM


Visibility: 3 mi

Pressure: 29.66 "Hg

Humidity: 100%

Dew point: 30 °F

Location of GanderLocation

Historic Weather in Gander — Graph

°F

Gander temperature yesterday

Maximum temperature yesterday: 37 °F (at 5:30 PM)
Minimum temperature yesterday: 16 °F (at 1:30 AM)
Average temperature yesterday: 28 °F

Past Weeks' High & Low Weather Summary

 TemperatureHumidityPressure
High50 °F (Apr 14, 3:30 PM)100% (Apr 4, 12:30 AM)30.49 "Hg (Apr 4, 12:30 AM)
Low9 °F (Apr 9, 3:30 AM)30% (Apr 13, 1:30 PM)28.93 "Hg (Apr 5, 4:23 AM)
Average28 °F71%29.93 "Hg
* Reported Apr 3 12:30 PM — Apr 18 12:30 PM, Gander, Weather by CustomWeather, © 2015

Note: Actual official high and low records may vary slightly from our data, if they occured in-between our weather recording intervals... More about our weather records

Advertising

Gander weather history for previous 24 hours

 ConditionsComfort  
Time TempWeatherWind HumidityBarometerVisibility
12:30 PM
Sat, Apr 18
30 °FLight snow. Ice fog.9 mph100%29.66 "Hg3 mi
11:30 AM32 °FLight mixture of precip. Ice fog.10 mph100%29.65 "Hg2 mi
11:22 AM32 °FLight mixture of precip. Ice fog.10 mph100%29.65 "Hg2 mi
10:30 AM32 °FMostly cloudy.10 mph100%29.63 "Hg5 mi
9:30 AM32 °FSnow flurries. Ice fog.10 mph100%29.61 "Hg6 mi
8:30 AM32 °FIce fog.12 mph100%29.60 "Hg6 mi
7:30 AM32 °FLight snow. Cloudy.9 mph100%29.59 "Hg3 mi
6:30 AM30 °FLight snow. Overcast.6 mph100%29.58 "Hg6 mi
5:30 AM30 °FLight snow. Overcast.5 mph100%29.57 "Hg3 mi
4:30 AM30 °FLight snow. Overcast.2 mph100%29.57 "Hg2 mi
3:30 AM30 °FLight snow. Mostly cloudy.6 mph100%29.58 "Hg3 mi
2:30 AM32 °FLight snow. Fog.2 mph93%29.59 "Hg12 mi
1:30 AM32 °FLight snow. Low clouds.3 mph100%29.60 "Hg12 mi
12:30 AM32 °FLight snow. Low clouds.No wind93%29.62 "Hg10 mi
11:30 PM
Fri, Apr 17
32 °FLight snow. Mostly cloudy.7 mph100%29.62 "Hg3 mi
10:30 PM32 °FLight snow. Mostly cloudy.5 mph100%29.64 "Hg3 mi
9:30 PM32 °FSnow flurries. Mostly cloudy.No wind100%29.65 "Hg2 mi
8:30 PM34 °FSnow flurries. Mostly cloudy.8 mph87%29.65 "Hg2 mi
7:30 PM36 °FMostly cloudy.5 mph70%29.64 "Hg20 mi
6:30 PM37 °FMostly cloudy.10 mph65%29.66 "Hg20 mi
5:30 PM37 °FMostly cloudy.13 mph60%29.67 "Hg20 mi
4:30 PM36 °FMostly cloudy.15 mph65%29.66 "Hg20 mi
3:30 PM36 °FPartly sunny.17 mph56%29.69 "Hg20 mi
2:30 PM36 °FOvercast.16 mph56%29.72 "Hg20 mi
1:30 PM32 °FMostly cloudy.14 mph60%29.76 "Hg20 mi
Weather by CustomWeather, © 2015

See weather overviewHow to use our weather pages